Location: Recife
(8.0585°S, 34.8848°W)
Time: 10:23:30
(UTC-03:00)

Transit 2A Rocket - Pass Details

Date: 17 April 2026
Orbit: 587 x 895 km, 66.7° (Epoch: 14 May)

Event Time Altitude Azimuth Distance (km) Brightness Sun altitude
Rises 21:50:38 0° 169° (S) 3,422 - -68.0°
Reaches altitude 10° 21:54:17 10° 146° (SE) 2,524 - -68.9°
Maximum altitude 21:57:29 15° 113° (ESE) 2,213 - -69.7°
Drops below altitude 10° 22:00:42 10° 80° (E) 2,558 - -70.5°
Sets 22:04:24 0° 58° (ENE) 3,495 - -71.4°
